Weather History for Dubois Muni, Dubois, WY, WY

Change the Weather History Date:

Thursday, April 3, 2014

  Actual Average (KJAC) Record (KJAC)
Temperature  
Mean Temperature 26 °F -  
Max Temperature 37 °F 44 °F 63 °F (1992)
Min Temperature 14 °F 15 °F -2 °F (1977)
Degree Days  
Heating Degree Days 40    
Moisture  
Dew Point 12 °F    
Average Humidity 58    
Maximum Humidity 80    
Minimum Humidity 30    
Precipitation  
Precipitation 0.00 in - - ()
Sea Level Pressure  
Sea Level Pressure 29.94 in    
Wind  
Wind Speed 8 mph (NW)    
Max Wind Speed 15 mph    
Max Gust Speed 21 mph    
Visibility 10 miles    
Events      
Averages and records for this station are not official NWS values.
T = Trace of Precipitation, MM = Missing Value Source: NWS Daily Summary

Daily Weather History Graph

Daily Weather History Graph

Search for Another Location

Airport:

Trip Planner

Search our weather history database for the weather conditions in past years. The results will help you decide how hot, cold, wet, or windy it might be!

Date:

Astronomy

Apr. 03, 2014 Rise Set
Actual Time 6:56 AM MDT 7:47 PM MDT
Civil Twilight 6:27 AM MDT 8:17 PM MDT
Nautical Twilight 5:53 AM MDT 8:51 PM MDT
Astronomical Twilight 5:17 AM MDT 9:27 PM MDT
Moon 9:22 AM MDT (4/3) No Moon Set
Length of Visible Light 13h 49m
Length of Day
12h 51m
Waxing Crescent, 18% of the Moon is Illuminated
Apr 3
Waxing Crescent
Apr 7
First Quarter
Apr 15
Full
Apr 22
Last Quarter
Apr 29
New

Hourly Weather History & Observations

Time (MDT) Temp. Windchill Dew Point Humidity Pressure Visibility Wind Dir Wind Speed Gust Speed Precip Events Conditions
12:15 AM 23.0 °F 13.1 °F 14.0 °F 68% 29.84 in 10.0 mi NNW 9.2 mph - N/A   Clear
12:35 AM 21.2 °F 12.6 °F 14.0 °F 74% 29.85 in 10.0 mi NNW 6.9 mph - N/A   Clear
12:55 AM 21.2 °F 13.6 °F 14.0 °F 74% 29.85 in 10.0 mi NNW 5.8 mph - N/A   Clear
1:15 AM 21.2 °F 14.9 °F 14.0 °F 74% 29.86 in 10.0 mi WNW 4.6 mph - N/A   Clear
1:35 AM 21.2 °F 16.4 °F 14.0 °F 74% 29.86 in 10.0 mi WNW 3.5 mph - N/A   Clear
1:55 AM 21.2 °F 13.6 °F 14.0 °F 74% 29.86 in 10.0 mi WNW 5.8 mph - N/A   Clear
2:15 AM 21.2 °F 10.9 °F 14.0 °F 74% 29.86 in 10.0 mi NW 9.2 mph - N/A   Clear
2:35 AM 19.4 °F 9.5 °F 14.0 °F 80% 29.86 in 10.0 mi NNW 8.1 mph - N/A   Clear
2:55 AM 21.2 °F 10.1 °F 12.2 °F 68% 29.86 in 10.0 mi NNW 10.4 mph - N/A   Clear
3:15 AM 19.4 °F 7.2 °F 12.2 °F 74% 29.86 in 10.0 mi NW 11.5 mph - N/A   Clear
3:35 AM 19.4 °F 7.9 °F 12.2 °F 74% 29.86 in 10.0 mi NW 10.4 mph - N/A   Clear
3:55 AM 19.4 °F 7.2 °F 12.2 °F 74% 29.87 in 10.0 mi NW 11.5 mph - N/A   Clear
4:15 AM 17.6 °F 5.7 °F 12.2 °F 79% 29.86 in 10.0 mi NW 10.4 mph - N/A   Clear
4:35 AM 17.6 °F 7.3 °F 10.4 °F 73% 29.86 in 10.0 mi WNW 8.1 mph - N/A   Clear
4:55 AM 17.6 °F 8.2 °F 10.4 °F 73% 29.87 in 10.0 mi WNW 6.9 mph - N/A   Clear
5:15 AM 17.6 °F 6.4 °F 10.4 °F 73% 29.88 in 10.0 mi WNW 9.2 mph - N/A   Clear
5:35 AM 15.8 °F 4.2 °F 10.4 °F 79% 29.88 in 10.0 mi WNW 9.2 mph - N/A   Clear
5:50 AM 15.8 °F 4.2 °F 10.4 °F 79% 29.89 in 10.0 mi WNW 9.2 mph - N/A   Clear
6:15 AM 15.8 °F 2.7 °F 10.4 °F 79% 29.90 in 10.0 mi WNW 11.5 mph - N/A   Clear
6:35 AM 14.0 °F 0.5 °F 8.6 °F 79% 29.91 in 10.0 mi WNW 11.5 mph - N/A   Clear
6:55 AM 14.0 °F 1.2 °F 8.6 °F 79% 29.92 in 10.0 mi WNW 10.4 mph - N/A   Clear
7:15 AM 14.0 °F 2.9 °F 8.6 °F 79% 29.93 in 10.0 mi WNW 8.1 mph - N/A   Clear
7:35 AM 17.6 °F 7.3 °F 10.4 °F 73% 29.93 in 10.0 mi NW 8.1 mph - N/A   Clear
7:55 AM 17.6 °F 6.4 °F 10.4 °F 73% 29.94 in 10.0 mi NW 9.2 mph - N/A   Clear
8:15 AM 19.4 °F 10.4 °F 10.4 °F 68% 29.94 in 10.0 mi WNW 6.9 mph - N/A   Clear
8:35 AM 19.4 °F 10.4 °F 10.4 °F 68% 29.94 in 10.0 mi NW 6.9 mph - N/A   Clear
8:55 AM 21.2 °F 14.9 °F 10.4 °F 63% 29.95 in 10.0 mi NNW 4.6 mph - N/A   Clear
9:15 AM 23.0 °F - 12.2 °F 63% 29.95 in 10.0 mi Calm Calm - N/A   Clear
9:35 AM 26.6 °F - 12.2 °F 55% 29.95 in 10.0 mi Calm Calm - N/A   Clear
9:55 AM 26.6 °F 21.2 °F 14.0 °F 59% 29.95 in 10.0 mi ENE 4.6 mph - N/A   Clear
10:15 AM 28.4 °F - 12.2 °F 51% 29.96 in 10.0 mi Calm Calm - N/A   Clear
10:35 AM 28.4 °F - 12.2 °F 51% 29.96 in 10.0 mi Calm Calm - N/A   Clear
10:55 AM 30.2 °F - 12.2 °F 47% 29.96 in 10.0 mi Calm Calm - N/A   Clear
11:15 AM 32.0 °F 27.5 °F 12.2 °F 44% 29.97 in 10.0 mi ENE 4.6 mph - N/A   Clear
11:35 AM 32.0 °F - 12.2 °F 44% 29.97 in 10.0 mi Calm Calm - N/A   Clear
12:15 PM 32.0 °F 28.7 °F 10.4 °F 41% 29.97 in 10.0 mi West 3.5 mph - N/A   Clear
12:35 PM 33.8 °F 30.8 °F 15.8 °F 48% 29.97 in 10.0 mi West 3.5 mph - N/A   Scattered Clouds
12:55 PM 32.0 °F 22.5 °F 19.4 °F 60% 29.97 in 10.0 mi West 12.7 mph 17.3 mph N/A   Overcast
1:15 PM 32.0 °F 25.6 °F 19.4 °F 60% 29.97 in 10.0 mi SSW 6.9 mph - N/A   Mostly Cloudy
1:35 PM 33.8 °F - 12.2 °F 41% 29.96 in 10.0 mi Calm Calm - N/A   Scattered Clouds
1:55 PM 33.8 °F 24.8 °F 15.8 °F 48% 29.96 in 10.0 mi WNW 12.7 mph - N/A   Scattered Clouds
2:15 PM 33.8 °F 23.9 °F 14.0 °F 44% 29.96 in 10.0 mi West 15.0 mph 19.6 mph N/A   Scattered Clouds
2:35 PM 35.6 °F 26.2 °F 14.0 °F 41% 29.95 in 10.0 mi WNW 15.0 mph - N/A   Scattered Clouds
2:55 PM 35.6 °F 27.5 °F 10.4 °F 35% 29.95 in 10.0 mi West 11.5 mph - N/A   Scattered Clouds
3:15 PM 35.6 °F 29.9 °F 10.4 °F 35% 29.95 in 10.0 mi NW 6.9 mph - N/A   Mostly Cloudy
3:35 PM 35.6 °F 28.0 °F 10.4 °F 35% 29.95 in 10.0 mi NNW 10.4 mph 18.4 mph N/A   Mostly Cloudy
3:50 PM 33.8 °F 23.9 °F 10.4 °F 38% 29.95 in 10.0 mi WNW 15.0 mph 19.6 mph N/A   Scattered Clouds
4:15 PM 35.6 °F 28.0 °F 12.2 °F 38% 29.95 in 10.0 mi NNW 10.4 mph - N/A   Scattered Clouds
4:35 PM 37.4 °F 28.5 °F 8.6 °F 30% 29.95 in 10.0 mi NW 15.0 mph 20.7 mph N/A   Clear
4:55 PM 35.6 °F 27.5 °F 10.4 °F 35% 29.96 in 10.0 mi NW 11.5 mph 19.6 mph N/A   Clear
5:15 PM 35.6 °F 27.5 °F 10.4 °F 35% 29.96 in 10.0 mi NW 11.5 mph 18.4 mph N/A   Clear
5:35 PM 35.6 °F 28.6 °F 10.4 °F 35% 29.97 in 10.0 mi NW 9.2 mph - N/A   Scattered Clouds
5:55 PM 35.6 °F 26.6 °F 8.6 °F 33% 29.97 in 10.0 mi NW 13.8 mph - N/A   Scattered Clouds
6:15 PM 33.8 °F 26.4 °F 10.4 °F 38% 29.98 in 10.0 mi NW 9.2 mph - N/A   Clear
6:35 PM 35.6 °F 27.1 °F 8.6 °F 33% 29.98 in 10.0 mi NW 12.7 mph - N/A   Clear
6:55 PM 33.8 °F 25.3 °F 12.2 °F 41% 29.98 in 10.0 mi NW 11.5 mph - N/A   Clear
7:15 PM 32.0 °F 23.6 °F 12.2 °F 44% 29.98 in 10.0 mi NW 10.4 mph - N/A   Clear
7:55 PM 30.2 °F 21.9 °F 15.8 °F 55% 30.00 in 10.0 mi NW 9.2 mph - N/A   Clear
8:15 PM 30.2 °F 22.6 °F 17.6 °F 60% 30.00 in 10.0 mi WNW 8.1 mph - N/A   Clear
8:35 PM 28.4 °F 19.7 °F 17.6 °F 64% 30.00 in 10.0 mi WNW 9.2 mph - N/A   Clear
10:15 PM 26.6 °F 18.2 °F 14.0 °F 59% 30.02 in 10.0 mi NNW 8.1 mph - N/A   Clear
10:35 PM 26.6 °F 20.0 °F 14.0 °F 59% 30.02 in 10.0 mi NW 5.8 mph - N/A   Clear
10:55 PM 26.6 °F 21.2 °F 14.0 °F 59% 30.02 in 10.0 mi NW 4.6 mph - N/A   Clear
11:15 PM 23.0 °F 18.4 °F 14.0 °F 68% 30.03 in 10.0 mi NW 3.5 mph - N/A   Clear
11:35 PM 23.0 °F - 14.0 °F 68% 30.03 in 10.0 mi Calm Calm - N/A   Clear
11:55 PM 23.0 °F 14.7 °F 14.0 °F 68% 30.03 in 10.0 mi NW 6.9 mph - N/A   Clear